This demonstration page uses our WeatherBlox Daily Observations layout. Learn more.

Left ArrowRight Arrow

30.21309, -93.2044

Hourly Observations for January 28, 2022

Temp ( °F °C ) Dew Point ( °F °C ) Humidity (%) Winds ( mph kmh ) Pressure ( in mb ) Visibility ( mi km ) Precip ( " mm )
12:15 am 00:15 Clear 47 8.2 30 -1.2 52 52 N 7 11 30.28 1025 10 16 0.00 0.00
12:35 am 00:35 Clear 46 7.9 29 -1.4 52 52 N 5 7 30.28 1025 10 16 0.00 0.00
12:55 am 00:55 Clear 46 7.5 29 -1.4 54 54 N 7 11 30.28 1025 10 16 0.00 0.00
1:15 am 01:15 Clear 45 7.4 29 -1.5 54 54 N 8 13 30.28 1025 10 16 0.00 0.00
1:35 am 01:35 Clear 45 7.3 29 -1.7 53 53 N 8 13 30.27 1025 10 16 0.00 0.00
1:55 am 01:55 Clear 45 7.3 28 -2.2 51 51 N 8 13 30.27 1025 10 16 0.00 0.00
2:15 am 02:15 Clear 45 7.1 28 -2.3 52 52 N 9 15 30.27 1025 10 16 0.00 0.00
2:35 am 02:35 Clear 44 6.8 28 -2.3 53 53 N 10 17 30.27 1025 10 16 0.00 0.00
2:55 am 02:55 Clear 44 6.7 28 -2.4 53 53 NNW 9 15 30.29 1026 10 16 0.00 0.00
3:15 am 03:15 Clear 44 6.6 27 -2.6 52 52 N 10 17 30.28 1025 10 16 0.00 0.00
3:35 am 03:35 Clear 44 6.4 27 -2.8 52 52 N 10 17 30.29 1026 10 16 0.00 0.00
3:55 am 03:55 Clear 43 6.2 27 -2.7 53 53 N 7 11 30.28 1025 10 16 0.00 0.00
4:15 am 04:15 Clear 43 6.1 27 -2.8 53 53 N 7 11 30.28 1025 10 16 0.00 0.00
4:35 am 04:35 Clear 43 6.1 27 -3 52 52 N 7 11 30.29 1026 10 16 0.00 0.00
4:55 am 04:55 Clear 43 5.9 27 -2.9 54 54 N 10 17 30.28 1025 10 16 0.00 0.00
5:15 am 05:15 Clear 43 5.9 27 -3 53 53 N 9 15 30.29 1026 10 16 0.00 0.00
5:35 am 05:35 Clear 42 5.8 26 -3.2 53 53 N 8 13 30.29 1026 10 16 0.00 0.00
6:00 am 06:00 Mostly Clear 43 6 27 -3 53 53 N 12 19 30.30 1026 10 16 0.00 0.00
6:47 am 06:47 Mostly Cloudy 43 6 27 -3 53 53 N 12 19 30.32 1027 10 16 0.00 0.00
7:55 am 07:55 Mostly Cloudy 43 6 27 -3 53 53 N 12 19 30.37 1028 10 16 0.00 0.00
9:45 am 09:45 Mostly Cloudy 45 7 28 -2 53 53 N 13 20 30.41 1030 10 16 0.00 0.00
10:45 am 10:45 Mostly Sunny 48 9 30 -1 50 50 NNW 15 24 30.42 1030 10 16 0.00 0.00
11:55 am 11:55 Mostly Sunny 54 12 28 -2 38 38 NNW 15 24 30.39 1029 10 16 0.00 0.00
12:53 pm 12:53 Mostly Sunny 55 13 25 -4 31 31 N 21 33 30.36 1028 10 16 0.00 0.00
1:45 pm 13:45 Mostly Sunny 57 14 23 -5 27 27 N 12 19 30.33 1027 10 16 0.00 0.00
2:45 pm 14:45 Mostly Sunny 55 13 21 -6 26 26 NNW 17 28 30.32 1027 10 16 0.00 0.00
3:50 pm 15:50 Mostly Sunny 55 13 21 -6 26 26 N 15 24 30.32 1027 10 16 0.00 0.00
4:55 pm 16:55 Mostly Sunny 54 12 21 -6 28 28 N 17 28 30.33 1027 10 16 0.00 0.00
5:45 pm 17:45 Mostly Sunny 52 11 21 -6 30 30 N 17 28 30.35 1028 10 16 0.00 0.00
6:45 pm 18:45 Mostly Clear 48 9 23 -5 37 37 NNW 6 9 30.38 1029 10 16 0.00 0.00
7:55 pm 19:55 Mostly Clear 45 7 27 -3 49 49 Calm 30.39 1029 10 16 0.00 0.00
8:50 pm 20:50 Mostly Clear 43 6 27 -3 53 53 Calm 30.40 1029 10 16 0.00 0.00
9:45 pm 21:45 Mostly Clear 43 6 27 -3 53 53 Calm 30.42 1030 10 16 0.00 0.00
10:15 pm 22:15 Clear 42 5.8 26 -3.4 52 52 NNW 6 9 30.42 1030 10 16 0.00 0.00
10:35 pm 22:35 Clear 42 5.6 26 -3.6 52 52 NNW 7 11 30.42 1030 10 16 0.00 0.00
10:55 pm 22:55 Clear 43 6.2 25 -3.7 49 49 N 8 13 30.42 1030 10 16 0.00 0.00
11:15 pm 23:15 Clear 44 6.6 26 -3.6 48 48 N 9 15 30.42 1030 10 16 0.00 0.00
11:35 pm 23:35 Clear 44 6.6 25 -3.9 47 47 N 8 13 30.42 1030 10 16 0.00 0.00
11:55 pm 23:55 Clear 44 6.5 24 -4.2 47 47 N 7 11 30.42 1030 10 16 0.00 0.00

Powered by AerisWeather